Cloud_Cover
100 100 100 100 100 100 96 100 100 100 100 100 100 100 100 100 100 100 20 6 87 100 100 98 100 100 100 98 100 100 100 100 100 100 100 100 100 100 100 100 55 100 100 100
95 100 100 100 100 97 100 100 100 100 100 100 100 100 100 92 76 21 59 18 93 100 98 72 100 97 92 38 29 80 34 99 81 67 95 97 38 28 5 24 16 90 77 100
74 100 100 100 100 100 100 100 100 100 100 99 100 100 5 90 100 30 6 28 53 39 15 5 80 5 5 58 96 3 1 5 6 42 28 5 5 5 3 3 0 4 4 5
5 68 84 100 100 100 100 100 100 100 100 93 83 22 35 85 34 5 5 5 22 37 33 10 9 5 5 2 1 2 5 4 3 4 4 0 1 0 0 4 2 1 2 5
100 100 100 100 100 100 94 55 58 100 40 93 18 5 80 5 5 45 5 5 5 5 5 5 5 3 3 2 1 0 0 4 0 0 0 4 5 3 0 0 0 0 0 2
100 100 100 100 100 13 20 50 5 38 94 60 46 43 5 5 5 4 38 31 5 4 3 1 0 0 0 0 0 0 0 2 2 3 0 0 1 0 3 1 0 0 4 0
47 100 100 100 39 5 5 6 2 61 89 28 51 9 5 2 4 0 0 3 5 4 0 1 0 0 0 0 0 0 0 0 4 4 0 3 0 0 0 0 0 0 0 0
56 71 100 60 5 5 0 0 3 26 48 19 5 5 2 0 0 0 0 0 0 0 0 11 5 4 4 2 0 0 0 0 0 3 0 0 0 0 0 0 0 0 0 0
52 2 5 5 5 5 5 4 0 5 4 7 0 15 8 7 4 0 3 1 0 0 4 4 5 4 2 0 0 0 0 0 2 0 0 0 0 0 0 0 0 0 0 0
32 5 5 5 3 4 4 0 0 0 0 4 5 18 4 5 5 3 5 3 1 0 3 0 2 1 0 1 0 0 1 0 2 0 0 0 5 4 5 2 2 4 1 0
87 6 5 4 0 0 0 0 0 0 0 0 3 2 0 0 2 6 2 3 3 4 5 4 3 1 0 1 0 3 4 5 5 5 5 5 5 5 5 5 5 5 5 4
100 46 5 0 0 5 1 0 0 0 0 2 0 1 5 0 0 0 2 1 0 5 5 17 5 5 5 5 5 5 5 5 4 5 5 5 5 13 17 63 49 7 5 5
100 100 82 32 2 0 0 1 0 0 0 4 5 5 5 4 1 0 2 0 4 5 5 5 3 0 0 0 2 1 0 3 5 5 6 8 5 6 100 93 15 24 5 5
100 100 100 94 97 10 3 4 2 3 2 4 4 5 5 5 2 5 5 5 5 5 5 5 5 5 5 5 5 5 7 5 5 6 6 69 15 15 83 78 20 12 5 5
100 100 100 100 100 100 83 5 5 5 5 5 5 5 5 5 5 5 5 5 5 5 5 5 8 16 16 15 52 60 65 55 24 48 11 5 5 5 27 18 5 8 5 5
100 100 100 100 100 100 100 100 53 6 83 29 6 5 5 5 5 5 5 5 5 5 5 77 92 52 56 92 94 51 12 27 5 33 44 27 60 8 5 5 77 5 5 5
77 100 100 100 100 100 100 100 100 75 64 99 100 99 81 37 17 22 26 7 5 14 8 37 97 23 98 93 91 24 5 5 27 68 39 62 62 49 5 14 8 5 5 5
6 28 93 100 100 100 100 100 100 100 97 60 90 74 53 18 30 34 53 46 51 83 5 6 70 61 92 66 38 81 33 40 41 51 68 75 71 40 5 5 5 5 5 5
7 5 7 69 100 100 100 100 100 100 100 98 100 95 79 100 20 18 49 89 42 82 11 72 85 42 71 25 85 47 19 5 33 71 56 70 45 32 5 5 5 5 5 0
100 7 5 6 34 94 100 100 100 100 100 100 100 100 100 84 58 5 44 72 90 100 98 100 96 70 23 35 72 86 87 39 8 25 17 57 14 5 5 5 5 1 5 4
100 70 5 0 3 18 20 86 100 100 100 100 100 100 100 100 100 96 90 76 97 94 50 54 80 88 72 67 46 97 100 100 79 37 5 7 5 14 5 5 5 2 4 2
100 85 51 4 0 0 37 93 86 100 100 100 100 100 100 100 100 100 100 95 96 98 81 55 97 100 98 59 96 100 100 100 100 62 5 5 5 30 5 5 5 5 0 0
100 100 96 25 95 5 1 60 100 85 69 94 87 81 100 100 100 98 100 100 100 100 100 100 81 100 100 100 100 100 98 100 100 77 5 5 5 49 5 5 5 0 1 0
100 100 100 100 100 100 78 2 5 89 100 19 97 84 5 85 72 38 72 44 40 100 100 70 99 100 100 100 100 88 99 100 100 100 20 5 5 9 5 5 5 0 0 0
87 100 100 100 100 100 100 97 5 5 5 32 83 98 92 87 33 22 16 38 88 100 100 96 88 100 100 100 100 98 100 100 100 100 58 5 5 2 1 4 5 0 0 1
97 80 48 100 100 100 100 100 88 5 5 5 97 100 100 100 100 93 81 28 100 100 100 100 100 100 100 100 100 100 100 100 100 100 100 7 5 0 0 2 5 0 5 5
100 100 87 100 100 100 100 100 100 85 43 5 5 5 43 53 100 100 100 100 100 100 100 100 100 97 100 100 100 100 100 100 100 100 100 20 5 3 4 5 5 5 5 5